Theta_e
345 352 361 361 360 358 357 359 361 363 363 362 362 360 360 359 356 353 349 347 347 344 341 338 337 335 335 334 333 334 334 334 334 337 341 345 350 352 353 354 353 352 352
348 353 360 360 359 358 357 359 361 362 362 362 362 361 359 357 355 352 348 345 344 340 338 335 335 335 336 336 335 335 334 333 332 331 331 338 346 349 350 351 354 352 353
346 350 355 359 359 358 356 357 359 360 361 362 362 360 358 356 353 350 348 345 341 339 337 337 336 336 336 335 335 335 334 334 335 336 337 326 343 348 349 350 353 353 352
349 349 352 359 359 358 356 355 356 358 359 360 360 358 356 355 352 348 346 343 340 339 338 337 337 336 336 336 335 335 335 336 338 339 333 334 336 348 349 348 350 351 351
350 347 353 359 358 357 356 355 354 355 356 357 358 356 354 353 351 349 347 345 341 340 339 338 338 338 338 338 338 338 338 341 343 342 337 333 333 343 346 345 346 349 349
349 345 356 358 358 357 356 355 353 353 353 354 355 354 353 351 350 348 347 346 345 342 341 340 340 341 341 341 341 342 342 344 345 341 344 335 335 344 343 344 347 347 348
347 346 354 356 357 357 357 356 354 353 352 352 352 352 351 350 349 348 347 347 345 344 343 341 344 344 344 344 344 345 345 345 342 338 339 338 335 343 342 344 347 350 349
344 350 355 356 356 356 356 355 353 353 352 352 352 352 351 350 349 348 347 347 347 347 346 346 346 347 347 347 347 345 345 344 338 335 338 339 342 343 341 345 349 350 351
344 354 354 353 354 356 355 354 353 352 352 351 350 350 350 350 349 348 347 347 347 347 347 347 348 348 348 347 346 345 342 342 337 334 335 339 346 344 342 345 346 350 352
342 354 355 353 349 349 351 355 353 352 351 350 350 350 349 350 349 348 346 347 348 348 348 348 348 348 348 348 348 347 344 343 338 335 335 340 346 343 342 343 345 346 350
338 348 355 352 349 346 345 350 354 353 352 351 351 351 348 344 344 343 345 344 348 348 349 349 349 349 349 349 349 348 345 338 336 338 341 348 348 345 342 342 344 344 348
334 338 347 352 349 345 341 346 349 349 349 348 346 345 346 342 340 340 342 345 347 348 349 349 349 350 348 343 344 346 342 339 337 338 342 349 347 343 343 342 343 343 346
334 336 342 352 351 347 344 346 349 346 345 345 344 343 344 341 339 339 338 340 341 346 342 344 345 345 342 341 340 342 341 340 338 336 342 346 344 340 340 342 343 343 346
334 337 346 353 355 353 350 346 351 349 347 344 344 344 342 341 339 338 337 339 337 338 339 337 338 340 341 342 342 343 342 341 337 338 341 344 342 340 340 341 343 343 346
330 332 341 354 357 360 361 358 351 349 350 348 347 346 343 342 340 340 340 338 339 338 339 336 338 338 340 341 342 343 340 341 339 338 339 345 343 344 341 341 342 343 344
349 352 347 355 360 361 358 359 362 360 352 353 351 350 347 343 344 341 340 343 340 339 339 338 336 338 339 341 342 342 343 342 342 340 341 340 344 344 344 343 343 343 343
346 359 348 354 365 363 361 361 358 356 354 350 352 357 350 348 344 345 343 338 343 343 342 342 339 340 343 342 341 344 342 339 341 342 341 339 340 344 345 345 344 344 343
344 345 349 338 355 363 361 359 357 354 353 354 353 355 358 351 350 348 346 345 342 345 341 342 342 340 339 338 340 340 342 343 342 342 340 340 338 337 343 344 345 344 344
344 347 347 351 351 360 362 359 359 357 358 355 352 354 358 356 351 351 347 346 350 344 343 342 338 341 337 338 337 337 342 341 339 341 339 339 338 338 337 341 342 343 343
344 346 350 349 355 359 358 358 352 350 348 349 349 352 356 354 353 350 350 347 352 345 342 342 341 340 337 336 333 335 340 339 340 339 338 338 337 338 338 337 336 335 341
344 341 343 346 349 352 346 345 342 341 341 344 347 354 356 354 352 352 348 350 348 344 343 346 343 340 336 336 336 335 335 338 337 338 338 336 337 338 337 337 335 335 335
343 345 347 346 347 349 347 347 347 346 342 344 351 354 355 354 353 351 348 347 347 345 346 345 342 336 334 338 333 332 325 330 335 336 336 337 335 335 336 337 335 335 335
337 340 342 346 347 349 348 348 350 350 352 352 354 354 354 353 353 351 348 348 347 346 343 344 341 338 332 335 337 330 322 319 324 332 334 334 334 333 334 334 334 333 334
337 340 344 345 344 346 349 347 345 340 338 344 351 350 352 353 351 349 348 348 348 345 344 342 342 338 339 333 335 335 334 329 321 320 329 331 333 332 332 332 330 333 330
327 331 333 341 343 345 345 347 343 346 346 354 352 354 351 351 350 348 348 349 347 346 347 343 343 342 340 335 333 331 331 330 329 323 319 324 330 331 331 331 332 332 327
325 326 329 335 338 343 347 349 348 348 345 347 348 350 347 347 347 347 347 346 349 347 346 345 345 343 339 338 336 332 329 326 324 324 321 322 323 327 329 330 330 331 331
Wind_Speed
15 20 21 19 17 16 14 12 12 10 12 12 12 12 12 12 11 11 11 10 8 8 7 6 6 6 6 7 7 6 6 6 5 5 4 3 5 7 7 7 4 4 8
21 20 21 19 18 17 14 12 11 11 10 11 11 12 12 12 11 10 10 9 8 7 6 6 6 5 5 5 5 6 4 3 3 4 5 3 3 7 8 8 7 10 10
20 19 20 20 19 18 15 13 12 10 10 11 11 12 12 12 11 11 10 9 9 8 7 8 7 6 5 5 4 4 3 2 3 4 7 5 7 8 9 8 7 9 9
18 17 16 19 18 18 16 14 12 11 10 11 12 12 12 11 11 11 11 10 9 9 8 6 6 5 4 3 3 2 0 2 5 7 6 7 8 9 10 8 5 7 8
16 16 15 20 18 18 17 15 13 12 10 11 12 12 13 11 11 11 10 10 10 9 8 7 6 5 4 3 2 1 1 5 8 9 8 5 6 9 9 7 3 7 8
16 16 19 20 19 18 17 16 15 12 12 12 12 12 12 12 11 12 11 11 10 11 10 9 7 6 6 5 4 3 3 7 9 9 8 5 9 11 8 6 4 1 10
18 15 18 20 18 17 17 16 16 14 12 12 12 12 13 13 13 13 13 12 12 11 11 10 9 8 7 6 5 5 6 7 8 10 9 6 10 13 10 7 3 5 11
17 15 15 19 17 16 17 17 17 16 15 13 13 13 13 14 14 14 13 13 13 12 12 11 10 9 7 6 6 6 5 6 9 8 8 7 12 11 11 8 3 4 12
17 16 14 14 15 15 15 15 16 17 16 15 14 14 14 14 14 14 14 14 14 13 13 12 11 10 9 8 6 6 7 7 6 7 11 7 12 11 10 8 4 3 12
16 17 14 13 14 13 11 15 16 16 17 16 15 14 15 15 15 15 14 14 14 14 13 13 13 11 10 8 7 9 10 12 7 9 8 7 13 12 11 8 6 4 9
16 17 16 15 14 13 13 13 14 16 15 15 14 15 12 9 11 13 14 16 16 15 14 14 13 12 11 9 10 12 13 6 8 7 3 16 12 10 9 8 6 5 7
18 19 17 16 15 13 11 10 12 11 9 10 10 11 10 10 8 12 14 19 17 16 15 14 13 13 11 7 7 14 6 10 9 6 7 16 13 11 9 8 7 6 7
17 16 19 14 16 15 11 9 7 7 8 9 13 11 10 9 8 8 7 8 8 14 8 10 9 8 10 8 8 8 9 11 6 3 12 16 14 12 9 8 8 8 8
15 13 18 15 14 13 9 9 10 9 9 9 11 13 9 8 8 8 7 8 9 8 10 8 8 9 10 10 11 8 11 10 1 1 7 13 13 13 12 10 10 11 9
9 14 15 18 11 8 7 4 7 9 9 10 11 14 12 10 10 8 7 8 10 10 10 9 9 10 11 11 11 12 6 4 4 1 5 14 13 12 13 13 12 13 13
3 2 4 15 13 11 8 7 4 5 6 7 8 11 17 12 8 9 9 7 7 10 9 11 10 8 10 9 12 10 5 5 5 5 3 7 14 13 13 13 14 14 14
2 2 4 1 13 11 9 7 5 5 6 7 6 8 17 14 12 11 9 10 7 6 10 8 11 8 6 6 6 5 5 6 4 4 5 6 7 13 15 14 14 14 15
7 7 6 6 6 12 10 7 6 7 6 5 7 5 12 15 13 11 8 7 9 5 6 5 4 5 5 4 4 4 4 1 3 4 4 5 6 6 11 14 15 15 14
9 8 7 5 3 9 7 8 9 8 6 6 6 5 8 14 15 9 9 6 7 6 5 4 4 3 4 4 4 5 3 3 4 5 5 6 6 7 5 13 15 14 14
6 7 6 5 3 2 2 6 5 5 7 6 7 6 8 9 13 11 7 8 5 5 5 4 5 4 4 4 4 4 3 3 4 6 5 5 4 4 6 6 6 8 16
9 9 9 8 6 3 3 4 5 6 5 7 7 7 7 9 10 10 9 6 7 6 6 5 5 5 4 3 2 2 3 6 8 5 4 3 4 5 6 6 5 4 5
10 9 9 9 8 6 4 5 4 4 7 8 6 6 7 9 9 9 9 8 8 5 6 6 6 3 3 3 3 3 4 3 6 5 3 4 5 4 6 6 4 4 4
10 10 10 9 9 9 10 6 5 5 4 3 4 4 5 7 8 8 10 7 8 6 6 5 5 5 5 5 6 2 2 0 1 1 5 3 4 4 4 2 4 4 10
4 6 8 10 11 11 11 8 9 8 7 5 4 6 7 7 8 9 9 7 8 7 7 7 6 5 4 4 2 3 3 1 0 1 1 2 1 4 4 3 1 4 3
10 9 10 11 13 14 14 12 8 8 5 4 3 8 8 7 9 10 9 7 8 7 7 9 7 7 5 3 3 2 4 3 3 3 2 2 2 1 2 3 3 8 8
15 15 14 15 15 14 12 12 9 9 8 6 7 7 7 6 6 8 10 7 8 6 6 6 6 6 4 3 1 2 3 3 3 3 2 2 2 2 2 2 1 5 9
Wind_Direction
132 143 148 147 146 147 148 154 155 155 146 143 140 136 130 125 120 120 120 117 114 114 117 119 116 111 108 102 94 78 55 40 24 19 20 42 84 82 66 53 23 168 132
136 144 148 150 152 150 153 153 156 152 144 139 140 138 132 132 133 132 130 128 132 133 133 130 125 124 113 106 102 96 83 62 32 342 299 261 117 102 77 59 53 108 129
138 142 151 154 154 154 156 154 152 150 143 145 144 144 145 145 149 145 144 149 156 158 157 156 154 149 139 118 103 86 68 19 327 291 289 262 159 129 95 71 98 120 142
134 139 149 156 158 157 157 157 148 150 152 152 152 155 152 156 157 156 157 164 168 171 171 170 166 162 142 132 122 109 66 303 296 299 277 243 164 121 99 83 101 119 122
133 143 150 157 160 160 159 155 152 154 157 162 164 162 163 165 165 165 168 177 175 178 178 183 181 176 166 173 165 169 287 299 299 298 267 76 56 98 86 72 148 141 122
138 148 148 158 160 161 160 156 157 162 171 171 172 169 170 173 171 173 175 183 185 186 187 191 191 190 189 194 208 230 267 287 304 281 271 136 97 123 105 82 27 164 150
144 156 152 159 160 161 161 160 160 167 178 184 178 176 174 179 178 180 183 187 191 193 194 196 200 204 206 210 221 246 262 285 296 302 298 157 128 134 120 92 350 222 169
144 133 147 157 163 165 165 167 166 171 179 188 187 186 185 186 185 185 189 193 195 198 198 199 205 209 214 224 244 251 256 274 294 293 291 88 129 130 115 100 25 210 182
141 128 144 162 166 170 171 174 175 176 181 187 191 190 193 193 193 193 194 199 201 204 200 202 207 210 217 226 241 263 274 265 276 283 290 112 132 126 121 111 79 103 171
147 139 146 159 172 176 178 182 186 183 184 188 192 198 196 197 198 199 203 207 207 209 207 208 209 212 219 225 231 243 244 256 252 254 254 134 137 138 136 130 124 139 161
163 150 152 165 172 181 181 186 191 195 191 195 196 201 198 203 202 209 206 212 211 211 214 213 215 217 217 224 232 238 244 247 242 235 115 133 141 143 148 148 150 159 169
168 164 157 161 166 180 187 177 186 195 201 204 203 201 205 209 211 207 208 213 207 206 216 219 218 221 217 226 217 230 234 242 243 217 130 149 153 158 166 167 175 185 186
183 178 163 155 162 174 195 166 176 190 197 203 208 202 197 210 215 211 208 198 203 206 210 215 218 221 219 220 245 190 214 238 235 254 151 158 159 156 167 184 198 202 204
196 187 145 148 158 177 174 171 172 189 192 200 204 201 203 197 209 217 208 196 193 197 204 218 208 207 219 228 236 236 212 228 293 39 156 159 158 163 170 189 212 215 214
23 70 202 162 161 163 176 190 184 189 188 198 195 197 197 203 210 204 218 209 184 197 192 211 214 208 208 211 233 248 230 256 205 212 148 174 168 171 177 187 209 220 219
67 327 14 153 157 160 176 193 226 195 200 198 194 192 198 198 196 209 205 216 216 190 206 197 215 218 198 205 224 239 210 217 196 196 132 167 179 183 188 193 206 217 221
253 284 331 22 153 163 171 172 214 244 207 234 210 193 188 194 202 196 213 206 207 223 194 197 206 217 191 205 237 225 204 211 223 211 159 170 184 197 195 193 209 214 218
194 189 201 260 166 168 167 179 200 217 238 230 216 221 177 191 192 206 205 208 209 199 229 205 202 193 185 212 214 227 175 193 249 236 204 162 184 188 210 205 202 210 211
194 191 176 185 263 164 177 195 199 207 215 214 216 211 196 181 194 190 211 210 185 204 207 213 211 191 193 197 208 236 159 202 246 262 231 208 203 195 182 205 213 206 213
136 131 159 154 192 128 219 201 218 199 219 224 226 217 190 185 178 195 206 203 206 193 210 206 192 201 188 203 210 237 155 240 237 246 245 242 207 232 189 200 193 206 208
165 166 172 173 196 183 226 221 233 222 230 230 216 206 178 168 179 177 198 212 198 200 202 205 180 191 200 205 235 266 240 219 226 221 223 249 252 256 265 179 179 194 204
168 170 177 189 188 201 221 218 234 223 225 213 193 181 166 162 171 183 191 217 191 198 197 210 178 165 194 217 176 220 250 227 219 225 230 211 215 235 250 242 185 195 340
182 183 184 187 190 203 221 229 209 236 254 271 165 154 159 154 170 183 194 226 172 183 202 189 167 189 199 210 183 223 347 48 69 160 217 216 213 219 240 147 195 118 202
230 194 188 192 199 209 214 217 219 217 218 220 177 157 156 166 181 182 186 221 166 190 198 179 174 197 225 194 141 201 256 64 52 311 215 227 120 227 219 155 138 79 128
240 225 224 208 201 206 204 210 208 220 203 199 153 144 153 168 162 173 187 211 180 198 171 172 176 188 182 164 152 220 200 199 194 200 252 187 113 256 231 125 173 142 183
232 234 226 211 204 202 193 191 201 216 209 189 181 148 138 134 159 180 196 204 179 202 163 159 157 155 140 183 300 221 188 161 217 195 201 244 140 152 155 109 174 140 176